User: anonymous   Login
Location: Unspecified
(0.0000°N, 0.0000°E)
Time: 02:03:11
(UTC+00:00)
Language:

Alouette 1 - Orbit

View from above orbital plane
View from above orbital plane
View from above satellite
View from above satellite

Ground track
Ground track

The orbit data is extracted from the following two-line orbital elements,

1 00424U 62049A   16210.59507909  .00000041  00000-0  37084-4 0  9996
2 00424  80.4646 227.0666 0022901 186.6635 292.5092 13.69060119687194
Epoch (UTC): 28 July 2016 14:16:54
Eccentricity: 0.0022901
inclination: 80.4646°
perigee height: 986 km
apogee height: 1020 km
right ascension of ascending node: 227.0666°
argument of perigee: 186.6635°
revolutions per day: 13.69060119
mean anomaly at epoch: 292.5092°
orbit number at epoch: 68719

The dashed part of the orbit path shows where the satellite is in the earth's shadow,  

DLR